Location: Alincthun
(50.7310°N, 1.8022°E)
Time: 09:36:44
(UTC+00:00)

Cosmos 1656 Rocket - Pass Details

Date: 17 February 2020
Orbit: 794 x 848 km, 71.1° (Epoch: 03 April)

Event Time Altitude Azimuth Distance (km) Brightness Sun altitude
Exits shadow 05:14:23 - 331° (NNW) 3,297 6.5 -17.7°
Reaches altitude 10° 05:16:34 10° 334° (NNW) 2,469 5.9 -17.3°
Maximum altitude 05:22:14 70° 58° (ENE) 903 4.0 -16.4°
Drops below altitude 10° 05:27:55 10° 142° (SE) 2,469 6.7 -15.5°
Sets 05:30:22 0° 145° (SE) 3,401 7.4 -15.1°
